Regional Weather Roundup
Issued by NWS

Home | Current Version | Previous Version | Graphics & Text | Print | Product List | Glossary On
Versions: 1 2 3 4 5 6 7 8 9 10 11 12 13 14 15 16 17 18 19 20 21 22 23 24 25 26 27 28 29 30 31 32 33 34 35 36 37 38 39 40 41 42 43 44 45 46 47 48 49 50
018
ASUS43 KMPX 230510
RWRMN
WEATHER ROUNDUP FOR MINNESOTA
NATIONAL WEATHER SERVICE TWIN CITIES/CHANHASSEN MN
1200 AM CDT SAT SEP 23 2017


NOTE: "FAIR" INDICATES FEW OR NO CLOUDS BELOW 12,000 FEET WITH NO
SIGNIFICANT WEATHER AND/OR OBSTRUCTIONS TO VISIBILITY. N/A MEANS
CURRENT SKY AND/OR WEATHER CONDITIONS ARE NOT AVAILABLE.

MNZ060>063-068>070-230600-
   Twin Cities Metro

CITY           SKY/WX    TMP DP  RH WIND       PRES   REMARKS
TWIN CITIES    CLOUDY    83  69  62 S10       29.86R
ST PAUL        CLOUDY    78  69  73 SE7       29.86R
CRYSTAL        CLOUDY    82  65  56 S13       29.83R
BLAINE         MOCLDY    82  68  61 S15       29.85R
LAKEVILLE      MOCLDY    79  68  69 S10G18    29.86R
EDEN PRAIRIE   MOCLDY    82  68  62 SW12G17   29.84S
SOUTH ST PAUL  CLOUDY    81  67  62 S7        29.86R
LAKE ELMO      FAIR      79  68  69 S12       29.88R
$$
MNZ001>005-007-008-013>017-022>024-027-028-230600-
   Northwest Minnesota

CITY           SKY/WX    TMP DP  RH WIND       PRES   REMARKS
BEMIDJI        CLOUDY    79  70  74 SW12G26   29.69R
HALLOCK          N/A     55  52  88 N16G23    29.78R
ROSEAU         LGT RAIN  57  54  88 N15G21    29.71R
WARROAD        CLOUDY    63  57  82 NW9       29.72R
THIEF RVR FALL CLOUDY    57  55  93 NW17      29.73R
CROOKSTON      CLOUDY    55  54  94 N15G22    29.76R
FOSSTON        CLOUDY    63  61  94 W13       29.72R
DETROIT LAKES  CLOUDY    61  55  82 W9        29.81R
MOORHEAD       CLOUDY    57  52  82 NW15      29.80R
PARK RAPIDS    CLOUDY    78  67  68 SW18G26   29.74R
MAHNOMEN       CLOUDY    59  56  91 W14       29.76R
$$
MNZ006-009>011-018-025>026-230600-
   North Central Minnesota

CITY           SKY/WX    TMP DP  RH WIND       PRES   REMARKS
BAUDETTE       TSTM      69  66  90 S10G24    29.65R
FLAG ISLAND    CLOUDY    61  59  94 NW14      29.70R
INTL FALLS     LGT RAIN  73  68  84 W14G30    29.72R
WASKISH        CLOUDY    79  72  78 CALM      29.68R
BIG FORK       CLOUDY    77  70  78 S12G18    29.70R
LONGVILLE      MOCLDY    79  70  73 S12G20    29.73R
GRAND RAPIDS   CLOUDY    78  69  73 S14       29.74F
CRANE LAKE     CLOUDY    72  68  88 SE3       29.72S
ORR            CLOUDY    75  66  73 S10G18    29.70R
COOK           CLOUDY    75  66  73 S10G16    29.73R
WALKER         FAIR      79  69  73 S15G22    29.71R
$$
MNZ012-019>021-037-230600-
   Northeast Minnesota

CITY           SKY/WX    TMP DP  RH WIND       PRES   REMARKS
DULUTH         CLEAR     71  66  84 S12       29.81S
ELY            CLOUDY    73  64  73 S10G17    29.76R
HIBBING        CLOUDY    73  68  84 S7        29.75F
EVELETH        CLEAR     73  64  73 S10G18    29.77F
DULUTH HARBOR  CLEAR     63  61  94 NE6       29.80S
TWO HARBORS    CLEAR     64  59  82 CALM      29.78F HAZE
SILVER BAY     CLEAR     61  61 100 CALM      29.78F
GRAND MARAIS     N/A     66  63  90 NE6       29.80S
G MARAIS ARPRT CLOUDY    63  59  88 CALM      29.86S
$$
MNZ029>031-032-039>041-046>048-054>057-064-230600-
   West Central Minnesota

CITY           SKY/WX    TMP DP  RH WIND       PRES   REMARKS
FERGUS FALLS   CLOUDY    66  59  77 W9        29.80R
WHEATON        MOCLDY    63  55  77 W8        29.85R
MORRIS         CLOUDY    72  66  83 CALM      29.79R
ALEXANDRIA     CLOUDY    69  62  78 S16       29.81S THUNDER
ELBOW LAKE     FAIR      69  63  82 SW5       29.80R
WADENA         CLOUDY    75  63  64 SW9G18    29.77R
GLENWOOD       CLOUDY    66  61  82 NE7G17    29.82F
APPLETON       MOCLDY    73  66  78 E5        29.78R
BENSON         CLOUDY    72  63  73 E8        29.80F
ORTONVILLE     CLOUDY    68  63  83 NW9       29.80R
MADISON        MOCLDY    73  73 100 SW3       29.78R
WILLMAR        FAIR      72  66  83 E5        29.83S
$$
MNZ033>034-036-042>043-049>051-058-059-230600-
   Central Minnesota

CITY           SKY/WX    TMP DP  RH WIND       PRES   REMARKS
ST CLOUD       CLOUDY    81  68  64 SW14      29.83R
SAUK CENTRE    TSTM      66  62  86 SW6G26    29.84R
PAYNESVILLE    CLOUDY    72  67  83 W5        29.83F
AITKIN         CLOUDY    79  66  65 S15       29.74S
PINE RIVER     CLOUDY    79  66  65 SW17G23   29.78R HAZE
BRAINERD       MOCLDY    80  68  66 S23G32    29.75S
STAPLES        CLOUDY    79  64  61 SW14G22   29.78R
LITTLE FALLS   CLOUDY    77  57  50 SW14G22   29.80R
LITCHFIELD     CLOUDY    79  70  73 SE5       29.84R
BUFFALO        CLOUDY    80  67  64 S8G16     29.84F
MAPLE LAKE     CLOUDY    80  70  72 S7        29.84S
HUTCHINSON     CLEAR     80  70  71 S7        29.84F
$$
MNZ037-044-045-052-053-230600-
   East Central Minnesota

CITY           SKY/WX    TMP DP  RH WIND       PRES   REMARKS
PRINCETON      CLOUDY    82  70  65 S12G22    29.82S
MORA           CLOUDY    79  64  61 S15G22    29.82F
CAMBRIDGE      MOCLDY    84  68  58 S14       29.83R
RUSH CITY      CLOUDY    80  67  65 S10G17    29.83F
MOOSE LAKE     MOCLDY    77  66  69 S8G16     29.77F
HINCKLEY       FAIR      79  68  69 S10       29.82S
CLOQUET        CLOUDY    72  63  73 S8        29.79S
MCGREGOR       CLOUDY    79  68  69 S14G24    29.76F
$$
MNZ071>073-080-081-089-090-097-098-230600-
   Southwest Minnesota

CITY           SKY/WX    TMP DP  RH WIND       PRES   REMARKS
MONTEVIDEO     CLOUDY    72  72 100 SE5       29.79S
GRANITE FALLS  CLOUDY    80  70  71 S7        29.81S
CANBY          CLOUDY    70  68  93 CALM      29.79R
MARSHALL       CLOUDY    81  68  64 S21G28    29.78R
REDWOOD FALLS  CLOUDY    79  67  66 S13       29.81R
OLIVIA         PTCLDY    79  68  69 S9        29.81S
PIPESTONE      MOCLDY    75  66  73 S8        29.85R
WORTHINGTON    CLEAR     78  68  71 S15G21    29.87R
JACKSON        PTCLDY    77  66  69 S14G22    29.88R
TRACY          CLOUDY    80  69  70 S15       29.83R
SLAYTON        MOCLDY    78  63  58 S14       29.85S
$$
MNZ065>067-074>077-082>085-091>093-230600-
   South Central Minnesota

CITY           SKY/WX    TMP DP  RH WIND       PRES   REMARKS
MANKATO        CLEAR     78  68  71 S10G17    29.87R
NEW ULM        CLOUDY    81  66  61 S14G23    29.84R
ST JAMES       CLOUDY    79  66  65 S16       29.86R
FAIRMONT       MOCLDY    78  68  71 S14       29.88R
FARIBAULT      PTCLDY    77  68  73 S10       29.88S
OWATONNA       CLEAR     79  68  69 S14       29.89S
WASECA         CLEAR     77  64  65 S13G21    29.90R
ALBERT LEA     CLEAR     81  68  65 S12       29.92R
$$
MNZ078>079-086>088-094>096-230600-
   Southeast Minnesota

CITY           SKY/WX    TMP DP  RH WIND       PRES   REMARKS
ROCHESTER      CLEAR     76  66  71 S13       29.93S
RED WING       MOCLDY    82  64  54 S6        29.88R
STANTON        PTCLDY    80  67  65 S13G21    29.86R
DODGE CENTER   CLEAR     75  64  69 S14G21    29.92S
WINONA         PTCLDY    79  64  61 S5        29.92S
AUSTIN         CLEAR     75  66  73 S9        29.93S
PRESTON        CLEAR     75  64  69 S14       29.95S
$$
ABBREVIATIONS USED IN REMARKS
   TC - TEMPERATURES IN CELSIUS
  WCI - WIND CHILL INDEX
   HX - HEAT INDEX
  VSB - VISIBILITY
$$




USA.gov is the U.S. government's official web portal to all federal, state and local government web resources and services.